Tacoma, WA

6:40 PM PDT on July 21, 2017 (GMT -0700)
McChord Air Force Base

Weather History for KTCM - January, 2011

Change the Weather History Date:

Monday, January 24, 2011

  Actual Average Record
Temperature  
Mean Temperature 45 °F -  
Max Temperature 48 °F 45 °F 61 °F (2015)
Min Temperature 42 °F 33 °F 18 °F (2008)
Degree Days  
Heating Degree Days 20    
Moisture  
Dew Point 45 °F    
Average Humidity 97    
Maximum Humidity 100    
Minimum Humidity 87    
Precipitation  
Precipitation 0.25 in - - ()
Sea Level Pressure  
Sea Level Pressure 30.17 in    
Wind  
Wind Speed 4 mph (South)    
Max Wind Speed 13 mph    
Max Gust Speed 23 mph    
Visibility 6 miles    
Events Fog , Rain    
Averages and records for this station are not official NWS values.
T = Trace of Precipitation, MM = Missing Value Source: NWS Daily Summary

Daily Weather History Graph

Daily Weather History Graph

Search for Another Location

Airport or City:

Trip Planner

Search our weather history database for the weather conditions in past years. The results will help you decide how hot, cold, wet, or windy it might be!

Date:

Astronomy

Jan. 24, 2011 Rise Set
Actual Time 7:44 AM PST 5:00 PM PST
Civil Twilight 7:11 AM PST 5:33 PM PST
Nautical Twilight 6:33 AM PST 6:10 PM PST
Astronomical Twilight 5:57 AM PST 6:46 PM PST
Moon 11:50 PM PST (1/24) 9:46 AM PST (1/24)
Length of Visible Light 10h 22m
Length of Day
9h 15m
Waning Gibbous, 69% of the Moon is Illuminated
Jan 24
Waning Gibbous
Jan 26
Last Quarter
Feb 2
New
Feb 10
First Quarter
Feb 18
Full

Hourly Weather History & Observations

Time (PST) Temp. Windchill Dew Point Humidity Pressure Visibility Wind Dir Wind Speed Gust Speed Precip Events Conditions
12:55 AM 44.6 °F 43.1 °F 44.4 °F 99% 30.26 in 8.0 mi South 3.5 mph - 0.04 in Rain Light Rain
1:45 AM 44.6 °F 43.1 °F 44.6 °F 100% 30.24 in 10.0 mi South 3.5 mph - N/A   Overcast
1:55 AM 44.4 °F 42.9 °F 44.2 °F 99% 30.24 in 10.0 mi South 3.5 mph - 0.01 in   Overcast
1:56 AM 44.6 °F 43.1 °F 44.6 °F 100% 30.24 in 10.0 mi South 3.5 mph - N/A Rain Light Rain
2:06 AM 44.6 °F 42.2 °F 44.6 °F 100% 30.23 in 8.0 mi SE 4.6 mph - N/A Rain Light Rain
2:07 AM 44.6 °F 42.2 °F 44.6 °F 100% 30.23 in 9.0 mi SE 4.6 mph - N/A Rain Light Rain
2:11 AM 44.6 °F 43.1 °F 44.6 °F 100% 30.23 in 9.0 mi SE 3.5 mph - N/A Rain Light Rain
2:55 AM 44.6 °F - 44.4 °F 99% 30.21 in 8.0 mi Calm Calm - 0.01 in Rain Light Rain
3:55 AM 44.2 °F - 43.9 °F 99% 30.20 in 6.0 mi Calm Calm - 0.01 in Rain Light Rain
4:22 AM 44.6 °F - 42.8 °F 93% 30.18 in 2.5 mi Calm Calm - N/A Rain Light Rain
4:23 AM 44.6 °F - 42.8 °F 93% 30.18 in 2.0 mi Calm Calm - N/A Rain Light Rain
4:26 AM 42.8 °F - 42.8 °F 100% 30.18 in 1.8 mi Calm Calm - N/A Rain Light Rain
4:28 AM 42.8 °F - 42.8 °F 100% 30.18 in 1.8 mi Calm Calm - N/A Rain Light Rain
4:30 AM 42.8 °F - 42.8 °F 100% 30.18 in 2.0 mi Calm Calm - N/A Rain Light Rain
4:33 AM 42.8 °F - 42.8 °F 100% 30.19 in 2.5 mi Calm Calm - N/A Rain Light Rain
4:35 AM 42.8 °F - 42.8 °F 100% 30.19 in 3.0 mi Calm Calm - N/A Rain Light Rain
4:40 AM 44.6 °F - 42.8 °F 93% 30.18 in 4.0 mi Calm Calm - N/A   Scattered Clouds
4:46 AM 44.6 °F 42.2 °F 42.8 °F 93% 30.16 in 2.5 mi East 4.6 mph - N/A   Scattered Clouds
4:47 AM 42.8 °F 41.1 °F 42.8 °F 100% 30.16 in 2.0 mi East 3.5 mph - N/A   Scattered Clouds
4:48 AM 42.8 °F 41.1 °F 42.8 °F 100% 30.17 in 1.8 mi ENE 3.5 mph - N/A   Mostly Cloudy
4:51 AM 42.8 °F - 42.8 °F 100% 30.17 in 1.5 mi Calm Calm - N/A   Mostly Cloudy
4:52 AM 42.8 °F - 42.8 °F 100% 30.17 in 1.5 mi Calm Calm - N/A   Mostly Cloudy
4:54 AM 42.8 °F - 42.8 °F 100% 30.17 in 1.8 mi Calm Calm - N/A   Mostly Cloudy
4:55 AM 43.5 °F - 43.2 °F 99% 30.17 in 2.0 mi Calm Calm - 0.01 in   Mostly Cloudy
4:57 AM 42.8 °F 41.1 °F 42.8 °F 100% 30.18 in 2.5 mi WNW 3.5 mph - N/A   Mostly Cloudy
5:01 AM 42.8 °F 41.1 °F 42.8 °F 100% 30.18 in 2.5 mi West 3.5 mph - N/A   Mostly Cloudy
5:06 AM 42.8 °F 40.1 °F 42.8 °F 100% 30.18 in 3.0 mi West 4.6 mph - N/A   Mostly Cloudy
5:12 AM 44.6 °F 42.2 °F 44.6 °F 100% 30.18 in 6.0 mi West 4.6 mph - N/A   Overcast
5:46 AM 44.6 °F - 44.6 °F 100% 30.18 in 10.0 mi Calm Calm - N/A   Overcast
5:50 AM 44.6 °F 42.2 °F 44.6 °F 100% 30.18 in 10.0 mi West 4.6 mph - N/A   Overcast
5:55 AM 44.6 °F - 44.4 °F 99% 30.18 in 10.0 mi Calm Calm - N/A   Overcast
6:55 AM 43.9 °F 42.3 °F 43.7 °F 99% 30.17 in 3.0 mi SE 3.5 mph - N/A   Overcast
6:57 AM 44.6 °F 43.1 °F 42.8 °F 93% 30.17 in 2.5 mi SSE 3.5 mph - N/A   Overcast
6:58 AM 44.6 °F 43.1 °F 42.8 °F 93% 30.17 in 2.0 mi SSE 3.5 mph - N/A   Overcast
6:59 AM 44.6 °F 43.1 °F 44.6 °F 100% 30.17 in 1.8 mi SE 3.5 mph - N/A   Overcast
7:00 AM 44.6 °F 43.1 °F 44.6 °F 100% 30.17 in 1.5 mi SE 3.5 mph - N/A   Overcast
7:02 AM 44.6 °F 43.1 °F 44.6 °F 100% 30.17 in 1.2 mi SE 3.5 mph - N/A   Overcast
7:03 AM 44.6 °F 42.2 °F 44.6 °F 100% 30.17 in 1.2 mi SE 4.6 mph - N/A   Overcast
7:04 AM 44.6 °F 43.1 °F 44.6 °F 100% 30.17 in 1.0 mi SE 3.5 mph - N/A   Mist
7:16 AM 44.6 °F 42.2 °F 44.6 °F 100% 30.18 in 1.2 mi South 4.6 mph - N/A   Overcast
7:19 AM 44.6 °F 42.2 °F 44.6 °F 100% 30.18 in 1.0 mi South 4.6 mph - N/A   Mist
7:25 AM 44.6 °F 42.2 °F 42.8 °F 93% 30.18 in 0.8 mi South 4.6 mph - N/A   Mist
7:31 AM 44.6 °F 41.4 °F 42.8 °F 93% 30.18 in 0.8 mi South 5.8 mph - N/A   Mist
7:34 AM 44.6 °F 42.2 °F 42.8 °F 93% 30.18 in 0.5 mi South 4.6 mph - N/A Fog Fog
7:40 AM 44.6 °F 40.7 °F 42.8 °F 93% 30.17 in 0.2 mi SE 6.9 mph - N/A Fog Fog
7:42 AM 44.6 °F 41.4 °F 42.8 °F 93% 30.17 in 0.2 mi SE 5.8 mph - N/A Fog Fog
7:44 AM 44.6 °F 41.4 °F 42.8 °F 93% 30.17 in 0.2 mi SE 5.8 mph - N/A Fog Fog
7:45 AM 44.6 °F 42.2 °F 42.8 °F 93% 30.17 in 0.2 mi SE 4.6 mph - N/A Fog Fog
7:48 AM 44.6 °F 43.1 °F 42.8 °F 93% 30.17 in 0.2 mi SE 3.5 mph - N/A Fog Fog
7:49 AM 44.6 °F 42.2 °F 42.8 °F 93% 30.17 in 0.2 mi SE 4.6 mph - N/A Fog Fog
7:50 AM 44.6 °F 42.2 °F 44.6 °F 100% 30.17 in 0.5 mi SE 4.6 mph - N/A Fog Fog
7:53 AM 44.6 °F - 44.6 °F 100% 30.17 in 0.8 mi Calm Calm - N/A   Mist
7:55 AM 44.1 °F 42.5 °F 43.9 °F 99% 30.17 in 1.0 mi SE 3.5 mph - N/A   Mist
7:57 AM 44.6 °F - 44.6 °F 100% 30.17 in 1.2 mi Calm Calm - N/A   Overcast
7:58 AM 44.6 °F 43.1 °F 44.6 °F 100% 30.17 in 1.8 mi SE 3.5 mph - N/A   Overcast
7:59 AM 44.6 °F 43.1 °F 44.6 °F 100% 30.17 in 2.0 mi ESE 3.5 mph - N/A   Overcast
8:03 AM 44.6 °F 42.2 °F 44.6 °F 100% 30.17 in 2.5 mi SE 4.6 mph - N/A   Overcast
8:06 AM 44.6 °F 42.2 °F 44.6 °F 100% 30.17 in 3.0 mi ESE 4.6 mph - N/A   Overcast
8:11 AM 44.6 °F 42.2 °F 44.6 °F 100% 30.16 in 2.5 mi East 4.6 mph - N/A   Overcast
8:18 AM 44.6 °F 41.4 °F 44.6 °F 100% 30.15 in 2.0 mi ESE 5.8 mph - N/A   Overcast
8:28 AM 44.6 °F 42.2 °F 44.6 °F 100% 30.15 in 2.5 mi ESE 4.6 mph - N/A   Overcast
8:29 AM 44.6 °F 42.2 °F 44.6 °F 100% 30.15 in 3.0 mi ESE 4.6 mph - N/A   Overcast
8:30 AM 44.6 °F 42.2 °F 44.6 °F 100% 30.15 in 4.0 mi ESE 4.6 mph - N/A   Overcast
8:55 AM 44.6 °F 43.1 °F 44.4 °F 99% 30.13 in 10.0 mi ESE 3.5 mph - N/A   Overcast
9:09 AM 44.6 °F 43.1 °F 44.6 °F 100% 30.13 in 10.0 mi ESE 3.5 mph - N/A   Mostly Cloudy
9:30 AM 46.4 °F 45.2 °F 44.6 °F 93% 30.10 in 10.0 mi East 3.5 mph - N/A Rain Light Rain
9:41 AM 46.4 °F - 46.4 °F 100% 30.11 in 10.0 mi Calm Calm - N/A   Overcast
9:55 AM 46.0 °F - 45.9 °F 99% 30.11 in 10.0 mi Calm Calm - 0.00 in   Mostly Cloudy
10:39 AM 46.4 °F 42.9 °F 44.6 °F 93% 30.12 in 10.0 mi WSW 6.9 mph - N/A   Overcast
10:43 AM 46.4 °F 45.2 °F 44.6 °F 93% 30.12 in 10.0 mi WSW 3.5 mph - N/A Rain Light Rain
10:55 AM 45.9 °F 43.6 °F 45.7 °F 99% 30.11 in 10.0 mi West 4.6 mph - 0.00 in Rain Light Rain
10:56 AM 46.4 °F 45.2 °F 46.4 °F 100% 30.11 in 10.0 mi West 3.5 mph - N/A Rain Light Rain
11:03 AM 46.4 °F 40.7 °F 46.4 °F 100% 30.13 in 10.0 mi West 12.7 mph - N/A   Overcast
11:09 AM 46.4 °F 41.9 °F 46.4 °F 100% 30.13 in 10.0 mi West 9.2 mph - N/A Rain Light Rain
11:10 AM 46.4 °F 41.1 °F 46.4 °F 100% 30.13 in 10.0 mi West 11.5 mph - N/A Rain Light Rain
11:21 AM 46.4 °F 44.3 °F 46.4 °F 100% 30.12 in 10.0 mi WSW 4.6 mph - N/A   Overcast
11:24 AM 46.4 °F 42.4 °F 46.4 °F 100% 30.13 in 10.0 mi SW 8.1 mph - N/A Rain Light Rain
11:36 AM 46.4 °F 41.5 °F 44.6 °F 93% 30.13 in 9.0 mi WSW 10.4 mph - N/A Rain Light Rain
11:55 AM 45.9 °F 41.7 °F 44.2 °F 94% 30.13 in 8.0 mi SW 8.1 mph - 0.03 in Rain Light Rain
12:55 PM 46.2 °F 45.0 °F 44.6 °F 94% 30.10 in 10.0 mi SSE 3.5 mph - 0.05 in Rain Light Rain
1:23 PM 46.4 °F 45.2 °F 46.4 °F 100% 30.09 in 10.0 mi SSE 3.5 mph - N/A   Overcast
1:42 PM 46.4 °F - 44.6 °F 93% 30.11 in 10.0 mi Calm Calm - N/A Rain Light Rain
1:55 PM 46.6 °F - 45.3 °F 95% 30.12 in 10.0 mi WSW 4.6 mph - 0.01 in Rain Light Rain
2:33 PM 46.4 °F 45.2 °F 46.4 °F 100% 30.11 in 10.0 mi ESE 3.5 mph - N/A   Overcast
2:53 PM 46.4 °F - 46.4 °F 100% 30.10 in 10.0 mi Calm Calm - N/A   Light Drizzle
2:55 PM 47.1 °F - 46.6 °F 98% 30.10 in 10.0 mi Calm Calm - 0.02 in   Light Drizzle
3:02 PM 46.4 °F 45.2 °F 46.4 °F 100% 30.10 in 10.0 mi East 3.5 mph - N/A   Overcast
3:25 PM 48.2 °F - 46.4 °F 93% 30.11 in 10.0 mi Calm Calm - N/A   Overcast
3:26 PM 48.2 °F - 46.4 °F 93% 30.11 in 10.0 mi Calm Calm - N/A   Overcast
3:51 PM 48.2 °F - 46.4 °F 93% 30.12 in 9.0 mi South 4.6 mph - N/A   Light Drizzle
3:55 PM 47.7 °F - 46.6 °F 96% 30.12 in 7.0 mi Variable 4.6 mph - 0.00 in   Light Drizzle
4:03 PM 48.2 °F - 46.4 °F 93% 30.12 in 9.0 mi Variable 4.6 mph - N/A   Overcast
4:55 PM 47.1 °F - 46.0 °F 96% 30.12 in 10.0 mi South 6.9 mph - 0.00 in   Overcast
5:20 PM 46.4 °F 43.5 °F 46.4 °F 100% 30.13 in 10.0 mi South 5.8 mph - N/A Rain Light Rain
5:29 PM 46.4 °F 42.9 °F 44.6 °F 93% 30.13 in 10.0 mi SSW 6.9 mph - N/A   Overcast
5:44 PM 48.2 °F - 44.6 °F 87% 30.14 in 9.0 mi SW 6.9 mph - N/A Rain Light Rain
5:55 PM 47.3 °F - 45.0 °F 92% 30.14 in 8.0 mi WSW 4.6 mph - 0.01 in Rain Light Rain
6:01 PM 46.4 °F 43.5 °F 44.6 °F 93% 30.15 in 6.0 mi SW 5.8 mph - N/A Rain Light Rain
6:03 PM 46.4 °F 42.9 °F 44.6 °F 93% 30.15 in 5.0 mi SW 6.9 mph - N/A Rain Light Rain
6:04 PM 46.4 °F 42.9 °F 44.6 °F 93% 30.15 in 5.0 mi SSW 6.9 mph - N/A   Overcast
6:09 PM 46.4 °F 43.5 °F 44.6 °F 93% 30.15 in 6.0 mi SW 5.8 mph - N/A Rain Light Rain
6:55 PM 46.9 °F - 45.0 °F 93% 30.17 in 10.0 mi South 8.1 mph - 0.02 in   Overcast
7:18 PM 46.4 °F 41.9 °F 44.6 °F 93% 30.17 in 10.0 mi South 9.2 mph - N/A Rain Light Rain
7:30 PM 46.4 °F 41.9 °F 46.4 °F 100% 30.18 in 10.0 mi South 9.2 mph - N/A   Overcast
7:55 PM 47.1 °F - 46.0 °F 96% 30.18 in 10.0 mi South 9.2 mph - 0.01 in   Overcast
8:35 PM 48.2 °F - 46.4 °F 93% 30.20 in 10.0 mi South 11.5 mph - N/A   Overcast
8:38 PM 48.2 °F - 46.4 °F 93% 30.20 in 10.0 mi South 11.5 mph - N/A   Overcast
8:39 PM 48.2 °F - 46.4 °F 93% 30.20 in 10.0 mi South 12.7 mph - N/A   Overcast
9:22 PM - - - N/A% 30.21 in - South 8.1 mph - N/A   Light Drizzle
9:31 PM 48.2 °F - 46.4 °F 93% 30.21 in 5.0 mi South 6.9 mph - N/A   Light Drizzle
9:47 PM 48.2 °F - 46.4 °F 93% 30.22 in 6.0 mi South 9.2 mph - N/A   Mist
9:50 PM 48.2 °F - 46.4 °F 93% 30.22 in 6.0 mi South 11.5 mph - N/A   Overcast
9:55 PM 47.5 °F - 47.1 °F 99% 30.22 in 7.0 mi South 10.4 mph - 0.00 in   Overcast
10:01 PM 48.2 °F - 46.4 °F 93% 30.22 in 6.0 mi South 12.7 mph 23.0 mph N/A   Light Drizzle
10:07 PM 48.2 °F - 46.4 °F 93% 30.23 in 5.0 mi SSW 12.7 mph 23.0 mph N/A   Light Drizzle
10:13 PM 48.2 °F - 46.4 °F 93% 30.23 in 6.0 mi SSW 12.7 mph - N/A   Light Drizzle
10:14 PM 48.2 °F - 46.4 °F 93% 30.23 in 6.0 mi SSW 12.7 mph - N/A   Overcast
10:16 PM 48.2 °F - 46.4 °F 93% 30.23 in 6.0 mi SSW 11.5 mph - N/A   Light Drizzle
10:43 PM 48.2 °F - 46.4 °F 93% 30.23 in 7.0 mi SSW 11.5 mph - N/A   Overcast
10:49 PM 46.4 °F 41.1 °F 46.4 °F 100% 30.23 in 9.0 mi SSW 11.5 mph - N/A   Overcast
10:52 PM 46.4 °F 40.7 °F 46.4 °F 100% 30.23 in 10.0 mi SSW 12.7 mph - N/A   Overcast
10:55 PM 47.3 °F - 46.6 °F 97% 30.23 in 10.0 mi SSW 10.4 mph - 0.02 in   Overcast
10:59 PM 46.4 °F 41.9 °F 46.4 °F 100% 30.23 in 10.0 mi SSW 9.2 mph - N/A   Overcast
11:00 PM 46.4 °F 41.9 °F 46.4 °F 100% 30.23 in 10.0 mi SSW 9.2 mph - N/A   Overcast
11:15 PM 48.2 °F - 46.4 °F 93% 30.24 in 10.0 mi SSW 9.2 mph - N/A   Overcast
11:24 PM 46.4 °F 40.7 °F 46.4 °F 100% 30.24 in 10.0 mi SSW 12.7 mph - N/A   Overcast
11:55 PM 47.1 °F - 46.0 °F 96% 30.25 in 10.0 mi SSW 9.2 mph - N/A   Overcast